Hourly Data Report for October 12, 2016

All times are specified in Local Standard Time (LST). Add 1 hour to adjust for Daylight Saving Time where and when it is observed.

ST LEONARD CS
NEW BRUNSWICK

47°09'28.050" N
67°49'55.014" W
245.00 m
810I001
71019
WIY

Download Data

Hourly Data (October 2016)
Hourly Data Report for October 12, 2016
Temp Definition
°C
Dew Point Temp Definition
°C
Rel Hum Definition
%
Wind Dir Definition
10's deg

Wind Spd Definition
km/h
Visibility Definition
km
Stn Press Definition
kPa
Hmdx Definition


Wind Chill Definition


Weather Definition


TIME
00:00 7.2 1.3 66 19 8   99.73     LegendNANA
01:00 4.6 0.5 75 15 4   99.73     LegendNANA
02:00 1.7 -0.1 88 13 4   99.75     LegendNANA
03:00 2.0 0.6 90 13 5   99.72     LegendNANA
04:00 2.1 -0.2 84 15 5   99.72     LegendNANA
05:00 1.5 0.2 91 13 5   99.74     LegendNANA
06:00 1.5 0.4 93 13 4   99.74     LegendNANA
07:00 1.1 0.2 94 12 5   99.76     LegendNANA
08:00 3.6 1.9 89 14 3   99.77     LegendNANA
09:00 8.8 2.9 66 15 6   99.77     LegendNANA
10:00 11.0 3.9 61 15 10   99.74     LegendNANA
11:00 13.9 4.6 54 16 12   99.69     LegendNANA
12:00 15.6 5.0 49 15 10   99.62     LegendNANA
13:00 16.8 4.9 45 15 11   99.52     LegendNANA
14:00 17.0 6.1 48 18 13   99.46     LegendNANA
15:00 16.7 6.7 52 17 17   99.43     LegendNANA
16:00
17:00 15.8 6.3 53 16 14   99.35     LegendNANA
18:00 14.9 4.3 49 16 20   99.32     LegendNANA
19:00 13.5 4.8 55 17 15   99.32     LegendNANA
20:00 12.8 5.8 62 16 16   99.30     LegendNANA
21:00 12.1 4.7 60 16 16   99.30     LegendNANA
22:00 11.1 3.4 59 15 16   99.25     LegendNANA
23:00 10.2 2.2 57 16 18   99.19     LegendNANA

Notes on Data Quality.

Legend

  • E = Estimated
  • M = Missing
  • NA = Not Available
  • ‡ = Partner data that is not subject to review by the National Climate Archives
Date modified: